Total_Precipitation_Accumulation
3.62 4.03 4.59 4.26 3.76 3.12 2.98 3.11 3.52 2.96 2.00 1.61 2.34 3.63 3.82 4.35 4.80 3.50 2.91 2.49 1.52 1.20 1.01 1.05 1.64 2.19 2.87 3.30 2.81 2.25 1.86 2.07 2.10 1.80 2.07 2.62 2.79 2.71
3.51 3.46 3.44 3.87 4.09 3.95 3.71 3.30 3.55 3.50 2.87 1.86 2.06 2.35 3.51 4.02 4.30 4.75 3.61 2.39 1.94 1.64 1.51 1.27 1.47 2.07 2.58 2.57 2.16 1.76 1.10 0.97 1.27 1.33 1.26 1.32 1.90 2.49
3.89 3.73 3.52 3.41 3.70 3.78 3.62 3.52 3.37 3.34 2.98 2.25 2.25 2.36 2.91 3.79 3.82 4.51 4.90 2.84 2.19 2.13 2.06 2.08 2.23 2.32 2.55 2.48 2.46 1.81 1.02 0.73 0.80 0.81 0.79 0.79 0.78 1.25
4.26 4.42 4.53 4.26 3.91 3.57 3.65 3.92 3.79 3.57 3.73 3.75 3.44 3.71 3.55 4.02 4.38 4.39 4.93 3.55 2.32 2.58 2.39 2.13 2.27 2.14 2.55 2.52 2.90 2.93 1.77 1.12 0.97 0.91 0.79 0.67 0.68 0.70
5.39 5.02 4.71 4.58 4.35 3.98 3.56 3.26 3.33 3.61 3.60 3.69 3.76 3.92 4.53 4.33 5.26 5.67 5.59 4.24 3.44 3.38 2.71 2.37 2.28 2.23 2.46 2.39 2.46 2.67 2.21 1.49 1.27 1.46 1.65 1.56 1.13 0.96
6.45 5.93 5.16 4.84 4.76 4.55 4.29 3.98 3.70 3.63 3.59 3.73 3.98 4.04 4.31 4.78 5.69 6.42 6.60 5.75 4.14 3.92 3.52 3.13 3.19 2.70 2.35 2.25 2.34 2.14 1.95 1.64 1.41 1.35 1.35 1.72 2.13 2.00
5.55 5.39 5.80 5.90 5.35 4.99 5.06 4.92 4.74 4.86 5.35 5.47 5.16 5.27 4.91 4.82 5.12 5.53 6.28 5.92 6.01 5.27 4.26 4.21 4.20 3.96 3.44 3.06 2.69 2.32 2.15 1.98 1.82 1.80 1.78 1.83 2.19 2.58
8.00 6.58 6.04 6.62 6.13 5.89 5.61 5.25 5.00 5.18 5.54 5.40 5.50 5.40 5.29 5.28 4.97 5.52 6.37 7.35 8.90 7.79 5.73 6.92 5.06 4.53 3.78 3.19 3.31 2.85 2.50 2.35 2.29 2.19 1.98 1.91 2.02 2.41
7.42 7.40 6.57 6.40 6.03 4.96 5.58 5.22 5.16 5.52 5.42 5.19 4.89 4.99 5.30 5.62 5.59 6.29 6.72 7.34 8.16 8.48 5.95 7.37 6.17 5.16 4.35 3.50 3.63 2.70 2.53 2.52 2.51 2.46 2.35 2.19 2.05 2.10
4.95 5.57 5.75 5.48 6.00 5.62 4.86 5.30 5.29 5.35 5.64 5.60 5.51 5.55 5.74 6.08 6.25 6.38 6.39 6.78 7.70 7.28 6.03 6.82 6.06 5.38 4.81 4.02 4.69 3.20 2.83 2.87 3.28 3.30 2.84 2.49 2.21 2.24
3.45 3.76 4.34 4.47 5.55 5.01 4.11 4.39 4.74 5.23 5.85 5.68 5.20 5.43 5.80 5.78 5.65 5.97 6.59 6.72 7.54 7.25 6.05 5.23 5.84 5.20 4.64 4.09 4.63 5.04 3.72 3.41 3.43 3.45 3.25 2.96 2.58 2.54
2.90 3.19 4.52 3.83 4.47 3.88 3.58 3.55 3.88 4.53 4.12 3.99 4.26 4.44 4.16 4.58 5.48 4.59 4.51 5.21 5.98 6.21 5.71 5.15 5.23 4.65 5.60 5.09 4.02 4.05 3.75 4.01 4.00 3.86 3.36 3.19 3.08 2.53
3.17 3.35 3.69 4.22 3.42 3.22 3.35 3.34 4.80 4.72 4.84 4.21 4.02 4.10 3.75 3.87 4.27 4.38 4.14 4.70 5.04 4.57 4.57 5.05 4.55 4.10 4.30 4.35 3.93 3.30 2.84 3.02 3.07 3.27 3.23 3.17 3.00 2.90
3.33 3.57 4.00 4.13 3.29 3.13 3.25 4.08 4.61 3.95 3.26 3.28 3.53 3.92 4.17 4.34 4.48 4.50 4.81 4.92 4.64 4.31 4.14 4.42 3.91 3.33 3.19 3.09 3.23 3.29 2.72 2.33 2.16 2.19 2.23 2.75 2.98 3.06
2.90 3.33 3.46 3.19 2.73 2.78 3.25 3.45 3.32 3.14 3.44 3.89 4.25 4.69 4.87 4.66 4.41 4.52 4.85 4.89 4.94 5.06 4.70 4.44 4.11 3.80 3.69 3.19 2.89 2.81 3.13 2.67 2.19 2.03 2.24 2.08 2.12 2.20
2.58 2.83 2.87 2.82 2.80 2.89 2.92 2.94 2.93 3.17 3.31 3.55 3.84 4.18 4.02 3.76 4.03 4.05 4.22 4.24 4.76 5.32 5.20 5.08 4.67 4.44 4.29 3.95 3.50 3.18 2.86 2.83 2.57 2.29 2.49 2.75 2.56 2.42
2.38 2.58 2.73 2.68 2.63 2.53 2.50 2.57 2.65 2.69 2.75 2.78 2.86 2.93 2.85 2.90 3.11 3.10 3.23 3.28 3.85 4.00 4.88 5.22 4.68 3.97 3.74 3.51 3.69 3.58 3.18 3.07 3.18 3.04 2.76 3.10 3.36 3.13
2.01 2.11 2.19 2.14 2.14 2.07 1.97 1.94 1.98 1.97 1.85 1.81 1.88 1.85 1.96 2.08 2.16 2.22 2.49 2.58 3.01 3.25 3.41 3.81 3.84 3.78 3.76 4.17 4.66 3.88 3.77 3.76 3.76 3.43 2.96 3.08 3.30 3.53
1.52 1.51 1.55 1.56 1.54 1.40 1.31 1.26 1.42 1.32 1.25 1.26 1.22 1.21 1.26 1.41 1.86 1.75 1.93 2.07 2.57 2.65 2.64 2.73 2.69 2.78 2.98 3.01 3.45 3.75 3.35 3.42 3.62 3.72 3.62 3.46 3.51 3.46
1.05 1.04 1.09 1.06 1.03 0.99 0.86 0.81 0.93 1.07 1.05 0.85 0.78 0.90 1.00 1.08 1.29 1.26 1.44 1.70 1.83 2.14 2.17 1.91 1.87 2.02 2.49 2.77 2.85 2.66 3.15 2.95 2.50 2.57 2.73 2.78 2.92 3.45
0.86 0.89 0.90 0.83 0.82 0.79 0.77 0.78 0.97 1.06 1.01 0.93 0.88 0.94 1.02 1.11 1.09 1.12 1.21 1.47 1.55 1.57 1.40 1.23 1.25 1.74 1.58 1.80 1.93 1.56 1.55 1.98 1.50 1.28 1.36 1.61 1.68 1.60
0.78 0.74 0.72 0.70 0.72 0.72 0.73 0.75 0.81 0.98 0.99 0.89 0.76 0.73 0.79 0.86 0.84 0.80 0.78 0.87 1.06 1.14 1.09 1.00 1.10 1.23 1.26 1.19 1.28 1.16 1.10 1.31 1.41 1.18 1.06 1.21 1.32 1.46
0.72 0.66 0.67 0.66 0.65 0.65 0.64 0.62 0.59 0.63 0.63 0.70 0.62 0.68 0.80 0.82 0.82 0.83 0.82 0.82 0.81 0.92 0.99 0.93 0.82 0.88 0.90 0.85 1.09 1.09 0.99 1.08 1.18 1.21 1.17 1.15 0.95 0.86